GEFSCGP_con_maxscp_282.txt.gz
SCP
0 0 0 0 0 0 0 0 0 0 0 0 0 0 0 1 1 1 1 1 1 1 1 1 2 2 1 1 2 3 4 4 3 2 2 2 2 1 1 1 1 2 2 2
0 0 0 0 0 0 0 0 0 0 0 0 0 0 0 0 1 1 1 1 1 1 1 1 1 2 1 1 2 3 4 4 3 3 3 3 2 1 1 1 1 2 2 3
0 0 0 0 0 0 0 0 0 0 0 0 0 0 0 0 1 1 1 1 1 1 1 1 1 1 1 1 2 2 3 4 4 4 4 3 3 2 1 1 2 2 3 2
0 0 0 0 0 0 0 0 1 1 0 0 0 0 0 0 1 1 1 1 1 1 1 1 1 1 1 1 2 2 3 3 4 4 4 4 3 2 2 2 2 2 2 2
1 1 0 0 0 0 0 1 1 1 0 0 0 0 0 0 1 1 1 1 1 1 1 1 1 2 2 2 2 2 2 3 3 4 4 4 3 3 2 2 2 2 2 2
1 1 1 1 0 0 0 1 1 1 1 0 0 0 0 0 1 1 1 1 1 1 1 1 2 3 3 3 2 2 2 2 2 3 3 3 3 2 2 2 2 2 2 2
1 1 1 1 1 1 1 1 1 1 1 0 0 0 0 0 0 1 1 1 1 1 1 2 3 4 3 3 2 2 2 2 2 2 2 2 2 2 2 2 2 2 1 1
1 1 1 1 1 1 1 1 1 1 1 1 1 1 0 0 0 1 1 1 1 1 1 2 3 4 3 3 3 3 3 3 3 3 3 3 2 2 2 2 2 2 2 2
0 1 1 1 1 1 1 1 1 0 0 1 1 1 0 0 1 1 1 1 1 1 2 3 3 3 3 3 3 4 4 4 4 4 3 3 3 2 2 2 2 2 3 3
0 1 1 1 1 1 1 1 1 0 0 1 1 1 1 1 1 1 1 1 2 2 3 3 3 3 3 3 4 4 4 5 5 4 4 4 3 2 2 2 3 3 3 4
0 1 1 1 1 1 1 1 1 0 0 0 1 1 1 1 1 1 1 2 2 3 3 4 4 3 3 3 4 4 4 4 5 6 7 6 5 3 2 2 2 3 4 5
0 1 1 1 1 1 1 1 1 0 0 0 0 0 0 1 1 1 2 2 2 3 4 4 4 4 4 4 4 4 4 6 7 9 9 8 6 4 2 2 3 4 5 6
0 0 1 1 1 1 1 1 0 0 0 0 0 0 1 1 1 1 2 2 3 3 4 4 5 5 5 4 4 4 5 7 8 7 7 6 4 3 3 3 4 5 6 7
0 0 0 0 0 1 1 1 0 0 0 0 0 0 1 1 1 2 2 3 3 3 4 4 5 6 6 5 4 4 5 6 6 4 3 3 3 3 3 4 5 6 7 8
0 0 0 0 0 0 0 0 0 0 0 0 0 1 1 1 2 2 3 3 3 3 3 4 5 6 6 5 5 4 5 5 5 4 3 3 3 4 4 4 5 6 7 8
0 0 0 0 0 0 0 0 0 0 0 0 1 1 2 2 2 3 3 3 3 3 4 4 4 5 6 6 5 5 6 5 5 4 3 3 4 5 5 5 5 6 6 6
0 0 0 0 0 0 0 0 0 0 0 1 1 1 2 2 3 3 3 3 3 4 4 5 5 6 6 7 6 6 6 5 5 4 4 4 4 5 5 5 5 5 6 6
0 0 0 0 0 0 0 1 1 1 1 1 2 2 2 2 3 4 3 3 3 4 5 6 7 8 8 8 7 7 6 5 5 5 4 4 4 4 4 4 4 5 6 6
1 1 0 0 0 0 1 1 1 1 1 2 2 2 2 1 2 3 4 3 3 5 6 7 9 11 12 11 9 8 6 6 5 5 5 4 4 4 4 3 3 4 5 5
1 1 1 0 0 1 1 1 1 1 2 2 2 2 2 2 2 3 3 3 3 5 6 8 11 14 15 13 10 9 7 6 6 5 4 4 5 5 5 4 3 4 4 4
1 1 1 1 1 1 1 1 1 1 2 2 2 3 2 2 2 3 3 3 3 5 6 8 11 15 15 13 10 9 7 7 6 5 4 4 5 5 5 4 4 4 4 4
2 1 1 1 1 1 1 1 1 2 2 2 3 3 3 3 3 3 2 3 3 4 6 8 12 14 13 11 9 8 7 6 6 6 5 5 5 6 6 5 5 5 4 3
2 2 2 2 1 1 1 2 2 2 2 2 3 3 3 4 5 4 3 3 4 5 6 8 11 13 12 9 8 7 7 6 6 7 7 7 7 7 7 6 6 5 4 4
2 2 2 2 2 2 2 3 3 3 3 3 4 5 5 6 7 6 4 4 5 5 6 7 10 11 11 9 8 7 7 7 7 8 9 10 10 10 10 8 7 6 5 4
2 2 2 2 2 2 4 4 4 4 4 4 6 7 7 7 8 7 5 5 5 5 5 6 8 10 10 10 9 8 7 7 8 9 10 11 11 11 10 10 8 7 5 4
2 2 3 3 3 3 5 6 6 6 5 5 7 10 10 8 8 8 6 5 5 5 5 6 7 9 11 12 10 8 8 8 9 9 10 11 10 9 9 9 9 7 4 3

GEFSCGP_con_maxscp_288.txt.gz
SCP
0 0 0 0 0 0 0 0 0 0 0 0 0 1 1 1 1 1 1 2 2 1 2 3 2 2 3 4 4 4 4 3 4 3 3 3 3 3 3 3 3 3 3 3
0 0 0 0 0 0 0 0 0 0 0 0 0 1 1 1 1 1 1 1 2 2 2 3 3 3 3 4 4 4 4 4 4 4 4 4 4 3 3 3 3 3 3 3
0 0 0 0 0 0 0 0 0 0 0 0 0 1 1 1 1 1 1 1 2 2 2 3 3 3 3 4 5 5 5 5 4 4 5 4 4 3 3 3 3 3 3 3
0 0 0 0 0 0 0 0 0 0 0 0 0 0 1 1 1 1 1 1 2 2 3 3 4 4 5 6 6 7 7 7 7 6 6 5 4 3 3 3 3 4 4 4
0 1 0 0 0 0 0 0 0 0 0 0 0 0 1 1 1 1 1 1 2 2 2 3 4 5 7 8 8 8 9 9 9 9 8 6 5 4 4 4 4 4 5 5
0 1 0 0 0 0 0 0 1 1 1 0 0 0 1 1 2 2 2 1 2 2 3 4 5 7 9 10 11 10 9 8 9 9 9 9 7 6 5 4 4 4 5 5
0 1 0 0 0 1 1 1 1 1 1 0 0 1 1 2 2 2 1 1 2 3 4 5 7 8 10 12 12 10 9 9 9 9 9 9 9 9 7 5 4 4 5 6
0 1 0 0 0 1 1 1 2 2 1 1 1 1 2 2 2 1 1 2 3 4 5 5 6 9 11 12 11 10 10 11 11 10 9 9 9 9 8 6 5 5 6 6
1 1 0 0 1 1 1 1 1 1 1 1 1 1 2 2 2 1 2 2 3 5 6 6 8 10 11 10 8 9 12 13 13 11 11 10 9 9 8 8 8 7 7 7
0 1 1 1 1 1 1 1 1 1 1 0 1 1 2 2 1 2 2 3 5 6 7 8 11 13 12 9 7 7 11 12 11 10 10 10 10 10 10 10 11 10 9 7
0 1 1 1 1 1 1 1 1 1 1 1 1 1 1 1 2 2 3 4 6 6 7 8 10 11 10 8 6 5 7 8 8 7 7 7 8 8 9 11 11 11 8 7
0 1 1 1 1 1 1 1 1 1 1 1 1 1 1 1 2 2 3 5 6 6 6 7 8 7 6 6 6 5 5 5 5 5 5 5 5 6 7 8 9 8 7 7
0 1 1 1 1 1 0 0 0 1 1 1 1 1 1 1 2 3 4 5 6 6 6 7 6 6 6 6 7 8 6 5 5 4 4 4 4 5 6 6 6 6 6 7
0 1 1 1 1 1 0 0 0 1 1 1 1 1 1 2 2 3 5 6 6 6 7 7 7 7 8 9 10 9 8 6 6 5 5 5 5 6 6 6 6 6 6 7
0 1 1 1 1 0 0 0 0 0 1 1 1 1 2 2 3 4 7 8 7 6 7 7 7 7 8 9 10 10 9 8 8 8 7 7 7 7 7 7 7 7 7 7
1 1 1 1 1 0 0 0 0 0 0 1 1 2 3 4 5 7 9 9 8 6 6 7 7 7 7 8 9 10 11 11 11 11 10 9 9 9 8 7 7 7 7 7
1 2 2 1 1 1 1 0 0 0 1 1 2 3 4 6 7 10 11 10 7 6 7 9 9 7 7 9 10 12 14 14 13 12 12 11 10 9 8 7 8 8 8 7
1 1 2 1 1 1 1 1 1 1 1 2 3 5 8 9 10 10 11 9 6 6 9 12 13 11 11 12 14 16 17 15 14 12 11 11 9 8 8 9 9 9 9 8
1 1 1 1 1 1 1 1 2 2 2 3 5 8 10 11 9 8 8 7 6 7 9 12 13 14 15 15 17 19 18 15 12 11 10 10 10 9 10 10 10 10 10 9
1 1 1 1 1 1 2 2 3 3 3 4 7 9 9 9 7 6 6 6 7 8 8 9 11 12 14 16 18 19 17 13 10 10 10 10 10 10 9 9 9 9 8 8
0 1 1 1 1 2 3 3 3 4 5 7 8 8 8 8 7 7 7 8 9 8 7 8 9 10 13 16 18 18 15 12 11 11 12 11 9 8 7 7 8 8 7 6
1 1 1 1 2 3 4 6 6 7 8 8 8 8 8 7 7 7 8 9 9 8 7 8 10 12 15 16 16 16 14 12 12 12 12 12 10 8 8 8 9 9 8 7
2 2 2 3 3 4 5 7 7 8 9 8 7 7 7 7 7 7 6 7 8 8 8 9 11 14 15 14 14 14 12 11 12 12 12 12 12 11 11 11 10 10 10 8
4 4 3 3 4 4 5 5 6 6 7 6 6 6 7 7 6 6 5 5 6 7 8 10 11 14 14 14 14 15 13 11 11 11 10 11 11 11 12 12 10 9 9 9
3 3 3 3 3 3 3 3 4 5 6 7 6 7 7 6 6 5 4 5 5 6 7 9 10 11 13 15 17 19 18 16 13 11 10 9 9 9 10 10 8 7 7 7
3 3 3 4 3 2 2 3 3 5 7 8 7 7 6 6 6 5 4 4 5 6 7 8 8 10 13 16 18 22 23 21 16 12 10 8 8 9 9 7 6 5 4 3

GEFSCGP_con_maxscp_294.txt.gz
SCP
0 0 0 0 0 0 0 0 0 0 0 0 1 1 1 1 1 1 1 1 1 1 1 1 2 2 3 3 3 2 2 2 1 1 1 1 1 1 1 1 1 1 1 1
0 0 0 0 0 0 0 0 0 0 1 1 1 1 1 1 1 1 1 1 2 2 1 1 1 2 3 3 3 3 2 2 2 2 2 1 1 1 1 1 1 1 1 1
0 0 0 0 0 0 0 0 0 0 1 1 1 1 1 1 1 1 1 1 2 2 2 1 1 2 3 3 3 3 2 2 2 3 3 2 2 2 1 1 1 1 1 2
0 0 0 0 0 0 0 0 0 0 0 0 0 1 1 1 1 1 1 2 2 2 2 2 1 2 2 3 3 3 3 3 3 4 4 4 3 2 2 2 1 1 1 2
1 1 1 1 0 0 0 0 0 0 0 0 0 0 1 1 1 1 1 2 1 2 2 2 2 1 2 3 3 4 4 4 4 4 4 4 3 3 2 2 2 1 1 1
1 1 1 1 0 0 0 0 0 0 0 0 0 0 0 1 1 1 1 2 3 4 4 5 5 5 6 7 7 7 7 7 6 5 5 4 4 3 3 2 2 2 2 2
1 1 1 1 0 0 0 0 0 0 0 0 0 0 0 1 1 1 4 7 9 10 11 11 10 11 12 13 13 12 11 10 8 6 5 4 4 4 4 3 3 3 3 3
0 0 0 0 0 0 0 0 0 0 0 0 0 0 0 1 2 4 9 14 17 17 16 15 14 13 14 14 14 12 11 9 7 5 4 4 4 4 4 4 3 3 3 3
0 0 0 1 1 1 1 0 0 0 0 0 0 0 1 2 4 7 12 17 18 17 16 14 13 11 11 10 9 9 7 6 5 4 4 4 3 3 3 3 3 3 3 3
0 0 1 1 1 1 1 0 0 0 0 0 0 0 1 2 4 6 9 12 13 12 11 11 11 11 10 9 7 6 5 5 5 5 5 4 3 2 2 2 2 2 3 3
0 0 1 1 1 1 1 0 0 0 0 0 0 0 1 2 3 4 5 6 7 7 7 8 8 9 10 9 8 7 6 6 7 7 6 5 3 2 2 2 2 2 2 2
0 0 1 1 1 1 1 0 0 0 0 0 0 1 1 2 3 3 3 4 5 6 6 6 6 7 8 8 8 8 8 8 8 7 5 4 3 2 2 2 2 2 1 1
0 0 1 1 1 1 1 0 0 0 0 1 0 1 1 2 3 4 4 4 6 7 7 7 6 5 5 6 6 7 8 8 7 5 4 3 3 3 3 3 2 2 1 2
0 0 0 1 1 0 0 0 0 0 0 0 0 0 1 2 3 4 4 5 6 7 8 8 6 4 5 5 5 5 5 6 6 5 5 4 3 4 4 3 2 2 2 2
0 0 0 0 0 0 0 0 0 0 0 1 1 1 1 2 4 5 6 6 7 7 7 8 6 4 4 4 5 5 5 6 7 7 6 5 4 4 4 3 3 2 2 2
0 0 0 0 0 0 0 0 1 1 1 1 2 2 3 5 7 6 6 7 8 7 6 6 5 4 4 5 6 7 7 8 9 9 8 6 5 5 4 4 3 3 2 3
0 0 0 0 0 1 1 1 1 1 1 2 4 5 6 7 7 5 5 7 8 7 5 4 4 5 7 9 11 11 11 12 12 11 9 7 6 5 4 4 3 3 3 3
0 0 0 0 1 1 1 2 2 2 2 3 4 6 8 7 6 4 4 7 9 8 7 7 8 11 14 16 16 14 13 13 13 11 9 8 6 5 5 4 3 3 3 3
0 0 0 1 1 1 1 2 2 2 2 3 3 5 7 8 7 6 5 8 10 11 11 13 15 16 19 20 17 14 13 14 14 12 10 9 7 6 6 5 4 3 3 3
0 0 1 1 1 1 1 1 2 2 2 2 3 4 6 8 9 9 9 9 11 12 12 14 15 13 13 14 12 11 12 15 16 15 12 9 8 7 7 6 5 4 3 3
1 1 1 1 1 1 1 2 2 2 2 2 3 4 6 9 12 14 14 13 14 14 13 12 10 7 6 6 7 9 13 17 19 17 12 9 7 7 7 7 6 5 4 4
1 1 1 1 0 1 1 2 2 2 3 3 4 8 11 13 15 16 17 17 16 15 14 11 9 7 5 5 6 10 15 18 19 16 11 8 7 7 7 8 7 6 5 5
1 1 1 1 1 1 2 2 2 3 4 5 7 11 15 16 15 15 16 15 15 14 14 12 10 8 6 5 6 9 14 17 17 14 10 7 7 7 7 8 8 7 6 6
2 2 2 2 2 2 3 3 3 3 4 5 7 10 12 12 12 13 13 12 10 10 11 11 10 8 7 6 7 9 12 14 13 11 9 8 8 8 8 8 8 7 7 6
2 2 3 3 3 3 4 4 4 4 4 4 5 5 6 7 10 12 11 9 7 7 8 9 9 8 8 8 8 9 11 11 10 9 9 10 10 9 9 8 7 6 5 5
1 2 3 3 3 4 4 4 4 4 4 4 4 3 3 5 8 10 9 7 5 6 7 8 8 7 7 9 9 10 10 11 10 10 10 10 11 10 10 8 6 4 4 4

GEFSCGP_con_maxscp_300.txt.gz
SCP
0 0 0 0 0 0 0 0 0 0 0 0 0 0 0 0 0 1 1 1 1 1 1 3 3 3 2 1 1 1 1 1 1 1 1 1 1 1 1 1 1 1 1 1
0 0 0 0 0 0 0 0 0 0 0 0 0 0 0 0 1 1 1 1 1 1 1 3 3 3 2 1 1 1 1 1 1 1 1 1 1 1 1 1 1 1 1 1
0 0 0 0 0 0 0 0 0 0 0 0 0 0 0 1 1 1 1 1 1 1 1 2 3 3 2 1 1 1 1 1 1 2 2 2 1 1 1 1 1 1 1 1
0 0 0 0 0 0 0 0 0 0 0 0 0 0 0 0 1 1 1 1 1 1 1 2 2 2 2 2 2 2 2 2 2 2 2 2 1 1 1 1 1 1 1 1
0 0 0 0 0 0 0 0 0 0 0 0 0 0 0 0 1 1 2 3 3 2 2 1 2 2 1 1 2 2 2 2 2 2 2 2 1 1 1 1 1 1 1 1
1 1 0 0 0 0 0 0 0 0 0 0 0 0 0 1 1 1 3 4 5 4 3 3 3 3 2 2 2 3 3 2 2 2 2 2 2 1 1 1 1 2 2 2
1 1 0 0 0 0 0 0 0 0 0 0 0 0 1 2 2 2 3 5 6 7 7 7 7 6 6 5 5 4 4 3 3 3 2 2 2 2 2 2 2 2 3 3
1 1 1 0 0 0 0 0 0 0 0 0 0 1 2 3 4 4 4 5 6 7 8 10 10 11 10 10 9 8 7 6 5 4 3 3 2 2 2 3 3 3 3 3
1 1 1 1 0 0 0 0 0 0 0 0 0 1 1 2 4 5 5 4 4 4 6 8 9 10 10 11 11 11 11 9 8 7 6 5 4 3 3 3 3 3 2 2
1 1 1 1 1 0 0 0 0 0 0 0 0 0 0 1 2 4 3 2 2 2 3 4 4 5 6 7 8 10 11 10 10 9 8 7 6 4 3 3 2 2 2 1
1 1 1 1 1 0 0 0 0 0 0 0 0 0 0 0 1 1 1 1 2 2 2 1 1 2 2 3 4 5 6 7 7 7 7 6 6 5 4 3 3 2 1 1
1 1 1 1 1 1 0 0 0 0 0 0 0 0 0 0 1 1 1 1 2 3 2 1 1 2 2 2 2 3 3 4 5 5 5 5 5 5 5 4 4 3 2 1
0 1 1 1 1 1 1 0 0 0 0 0 0 0 0 1 1 1 1 1 2 3 3 2 2 3 3 3 3 3 3 4 5 6 5 4 4 4 5 4 3 3 2 1
0 1 1 1 1 1 1 0 0 0 0 0 0 0 0 1 1 1 1 2 3 4 3 2 3 3 3 3 3 3 4 5 7 9 8 6 5 4 4 3 3 2 2 1
0 0 1 1 1 1 1 0 0 0 0 0 0 0 0 1 1 1 1 2 3 4 3 3 3 3 3 3 3 4 6 7 10 11 10 8 6 4 3 3 2 2 2 2
0 0 0 1 1 1 1 0 0 0 0 0 0 0 0 1 1 1 1 2 4 4 4 3 2 2 3 3 4 7 8 10 11 12 12 9 6 4 3 3 3 2 2 2
0 0 0 1 1 1 1 1 1 1 1 1 1 0 1 1 1 1 1 2 4 5 4 3 2 2 2 4 7 10 12 13 13 12 10 7 5 3 3 3 3 4 4 4
0 0 0 0 1 1 0 1 1 1 1 1 1 1 1 1 1 1 1 2 4 5 5 4 3 3 3 6 9 12 13 13 13 10 7 5 4 3 3 3 4 5 5 5
0 0 0 0 0 0 0 1 1 1 1 1 1 2 2 2 2 1 1 3 5 6 6 5 5 4 5 7 9 9 8 8 8 7 5 5 6 5 4 4 5 6 7 7
0 0 0 0 0 0 0 1 1 1 1 1 2 2 3 3 2 2 2 4 6 6 5 5 5 5 5 5 5 5 4 4 4 5 6 7 8 7 5 5 5 7 7 8
0 0 0 0 1 1 0 1 1 1 1 2 2 3 3 3 3 2 2 4 6 5 5 5 5 4 3 3 3 3 3 3 4 6 8 9 10 9 7 5 5 7 7 8
0 0 0 1 1 1 0 1 1 1 1 2 2 2 3 3 2 2 3 4 4 4 4 5 5 4 3 3 3 3 3 3 4 7 9 11 12 11 8 6 6 7 8 8
0 0 0 1 1 0 0 1 1 1 1 2 2 2 2 2 2 3 4 4 4 4 4 6 6 4 3 3 3 3 3 3 5 7 10 13 14 12 8 6 6 8 9 9
1 0 0 1 1 1 1 1 1 1 1 2 2 1 1 1 2 3 4 3 3 3 4 6 6 5 4 4 4 3 3 3 5 8 11 13 13 10 7 6 6 7 9 9
1 1 0 1 1 1 1 1 1 2 2 2 2 1 1 1 1 2 2 2 2 3 5 7 7 5 3 3 4 4 3 3 5 8 10 10 9 7 5 5 5 6 7 7
0 0 1 1 1 1 1 1 2 2 2 2 2 1 1 1 1 1 1 1 2 4 5 7 7 5 3 3 3 4 3 3 5 7 8 8 7 5 4 4 4 5 5 5

GEFSCGP_con_maxscp_306.txt.gz
SCP
0 0 0 0 0 0 0 0 0 0 0 1 1 1 1 1 1 1 1 1 1 2 2 2 2 2 2 2 3 3 3 3 3 2 2 2 2 2 3 2 2 2 2 2
0 0 0 0 0 0 0 0 0 0 0 0 0 0 1 1 1 1 1 1 1 2 2 2 2 2 2 2 3 3 3 3 3 3 2 3 3 3 3 3 3 2 2 2
0 0 0 0 0 0 0 0 0 0 0 0 0 0 1 1 1 2 2 2 2 2 2 2 2 2 2 2 3 3 3 4 4 3 3 3 3 3 3 3 3 3 3 2
0 0 0 0 0 0 0 0 0 0 0 0 0 0 1 1 2 3 3 3 3 2 2 2 2 2 2 2 3 3 4 4 5 4 4 3 4 4 3 3 3 3 2 2
0 0 0 0 0 0 0 0 0 0 0 0 0 0 1 2 3 4 4 4 4 3 2 2 2 2 2 2 3 3 4 5 6 5 4 4 4 4 3 3 3 2 2 2
0 0 0 0 0 0 0 0 0 0 0 0 0 0 1 2 4 5 5 4 3 3 2 2 2 3 3 3 4 4 5 6 6 5 5 5 5 5 4 3 2 2 2 1
0 0 0 0 0 0 0 0 0 0 0 0 0 1 3 5 6 6 5 3 2 2 1 1 2 3 4 5 5 5 6 6 6 5 5 5 5 4 3 3 2 2 2 1
0 0 0 0 0 0 0 0 0 0 0 0 0 2 5 6 6 5 3 2 2 2 1 1 2 3 4 5 6 7 8 7 7 7 6 6 5 4 3 3 3 2 2 2
0 0 0 0 0 0 0 0 0 0 0 0 0 3 5 6 4 3 2 2 1 2 2 1 2 2 3 4 5 7 8 9 9 8 8 7 6 5 5 4 4 4 4 3
0 0 0 0 0 0 0 0 0 0 0 0 0 2 4 4 3 2 1 1 1 1 2 2 2 2 2 3 5 6 7 9 10 9 8 8 7 7 7 6 6 5 5 5
0 0 1 1 0 0 0 0 0 0 0 0 0 1 3 4 2 1 1 1 1 1 2 2 2 2 2 3 4 6 7 9 10 10 9 8 8 7 7 7 6 6 6 6
0 0 1 1 1 0 0 0 0 0 0 0 0 1 2 3 2 1 1 1 1 2 2 2 2 2 2 2 4 6 8 10 11 11 10 9 8 8 7 7 8 7 7 6
0 0 0 1 1 1 1 0 0 0 0 0 0 1 1 2 2 2 2 1 1 1 1 2 2 2 2 3 5 7 9 12 13 13 11 11 10 10 10 11 10 8 7 7
0 0 0 0 1 1 1 1 0 0 0 0 0 1 1 1 2 2 2 1 1 1 1 2 3 3 3 4 6 8 10 12 14 14 13 13 15 15 15 14 10 7 6 7
1 0 0 0 0 0 0 0 0 0 0 1 1 1 1 1 1 2 2 2 1 1 1 2 4 4 4 4 6 8 10 13 14 14 15 17 20 20 18 13 8 6 5 5
1 0 0 0 0 0 0 0 0 0 1 1 1 1 1 1 1 1 2 2 2 2 2 2 4 5 4 4 5 7 10 12 13 14 16 20 22 20 15 10 6 5 5 5
1 1 0 0 0 0 0 0 0 0 1 1 1 1 1 1 1 1 2 2 3 2 2 3 5 6 5 4 4 6 8 11 12 13 14 16 16 14 10 7 5 5 5 5
1 1 1 0 0 0 1 1 1 1 1 1 1 1 1 1 1 1 2 3 3 3 3 3 4 6 6 4 4 4 6 8 10 10 10 9 8 7 7 6 6 6 5 5
1 1 1 1 0 1 1 1 1 1 1 1 1 1 1 1 1 1 2 3 3 4 5 4 4 5 6 5 4 4 5 6 7 7 6 6 5 6 6 6 7 7 6 5
1 1 1 1 1 1 1 1 1 1 1 1 1 1 1 2 2 2 3 4 4 5 6 5 4 5 6 6 5 5 5 5 5 5 5 5 6 7 8 8 8 7 6 6
1 1 1 1 1 1 1 1 1 1 1 1 1 1 1 2 3 4 5 6 5 5 5 6 5 5 6 6 6 5 5 4 4 5 5 5 6 8 10 10 9 7 6 5
1 1 1 1 1 1 1 2 2 2 2 2 2 2 2 3 6 7 7 7 6 5 4 5 5 6 7 7 6 6 5 4 4 5 5 5 6 7 8 9 8 6 5 5
1 2 2 1 1 1 2 2 2 2 3 3 2 2 3 5 7 8 8 7 6 5 4 5 5 6 6 7 7 7 7 6 6 6 6 6 6 6 7 7 7 6 5 4
2 2 2 2 1 1 2 2 2 3 3 3 3 4 5 6 7 7 7 7 6 5 5 5 5 5 6 7 8 9 10 9 8 7 7 7 7 7 7 8 7 6 5 4
2 2 2 2 1 2 2 2 3 3 4 5 6 7 7 8 9 8 7 6 6 5 5 4 4 4 5 6 7 8 10 10 9 8 8 8 8 8 8 8 7 6 5 4
2 2 2 2 2 2 2 3 3 3 5 7 8 9 9 10 10 9 7 6 6 5 4 4 3 3 5 6 6 6 8 9 9 9 8 9 9 9 8 8 7 6 5 5

GEFSCGP_con_maxscp_312.txt.gz
SCP
1 1 0 0 0 0 0 0 0 0 0 0 0 0 1 1 1 1 2 3 4 4 4 4 3 2 2 2 3 4 4 4 4 3 3 3 3 3 4 3 3 2 2 2
0 0 0 0 0 0 0 0 0 0 0 0 0 1 1 1 1 1 2 3 4 4 4 3 3 2 2 3 4 4 4 4 4 3 3 3 3 3 4 4 3 3 2 2
0 0 0 0 0 0 0 0 0 0 0 0 0 1 2 2 1 1 2 3 4 4 3 3 3 3 3 4 5 5 5 4 4 4 3 3 3 3 4 4 4 3 3 2
0 0 0 0 0 0 0 0 0 0 0 1 1 1 1 1 1 1 2 3 3 4 3 3 4 4 4 4 5 5 5 4 4 4 4 3 3 3 4 4 5 4 4 3
0 0 0 0 0 0 0 0 0 0 1 1 1 1 1 2 3 4 5 5 5 5 4 5 6 7 6 5 5 5 5 5 4 4 4 4 3 3 4 4 5 5 5 4
0 0 0 0 0 0 0 0 0 0 0 0 0 1 1 2 5 9 10 8 7 6 5 6 8 8 8 7 7 6 5 5 5 4 5 5 5 5 5 5 5 5 5 5
0 0 0 0 0 0 0 0 0 0 0 0 0 1 1 4 7 10 10 9 7 5 5 5 6 7 8 10 10 8 7 7 6 5 5 7 8 8 7 6 5 5 5 5
0 0 0 0 0 0 0 0 0 0 0 0 0 1 3 6 8 7 7 5 4 3 3 3 3 4 6 9 10 11 10 10 9 9 9 9 10 9 7 6 5 5 5 5
0 0 0 0 0 0 0 0 0 0 0 0 1 3 6 8 7 6 4 3 2 2 2 2 3 3 5 6 8 10 10 10 10 11 12 11 11 10 9 8 8 8 8 9
0 0 0 0 0 0 0 0 0 0 0 0 0 2 7 9 8 6 4 2 2 1 2 2 3 3 4 5 6 8 9 9 8 9 9 8 9 11 12 12 11 12 13 15
0 0 0 0 0 0 0 0 0 1 1 1 0 1 5 10 10 7 4 2 2 1 1 2 2 3 3 4 5 6 8 9 8 6 5 5 7 9 10 10 10 11 14 16
0 0 0 0 0 0 0 0 0 1 1 1 1 1 5 11 11 7 4 3 2 2 2 2 2 3 3 4 5 7 9 10 9 8 6 6 7 8 8 8 9 10 12 13
0 0 0 0 0 0 0 0 0 0 1 0 1 2 7 10 8 6 4 3 3 3 2 3 3 3 4 5 6 8 9 10 10 8 7 8 9 11 12 11 12 12 12 12
0 0 0 0 0 1 0 0 0 0 0 0 1 3 7 7 6 5 5 4 4 4 4 4 4 4 5 6 8 10 9 9 9 7 8 10 13 15 16 15 14 14 13 12
0 0 0 0 0 1 1 0 0 0 0 0 1 3 5 5 5 5 5 5 4 4 4 5 5 6 6 7 10 11 9 8 7 7 8 12 15 18 18 17 16 15 12 10
0 1 1 0 0 0 1 0 0 0 0 1 1 3 4 5 5 5 5 5 4 4 4 5 6 7 8 8 9 10 9 8 7 7 8 13 16 19 19 18 16 13 10 9
1 1 1 1 0 0 0 1 1 1 1 1 2 2 3 5 5 5 5 4 4 4 4 5 6 8 9 9 8 9 9 9 8 7 9 13 17 19 18 16 13 11 9 9
1 2 1 1 1 0 0 1 1 2 2 2 2 3 4 5 5 5 4 4 4 4 5 6 7 9 10 9 8 8 9 9 8 8 10 13 15 16 15 12 10 9 9 9
1 1 2 1 1 1 1 1 1 2 2 3 3 3 4 5 5 4 4 5 6 6 5 6 7 8 11 10 9 9 9 9 8 8 9 11 12 12 11 10 9 9 10 10
1 1 1 1 1 1 1 1 1 1 2 3 4 4 5 5 5 5 5 7 8 8 7 6 7 8 11 12 11 10 10 8 7 8 9 9 11 11 11 9 8 9 10 10
1 1 1 1 1 1 1 1 1 2 3 4 4 5 7 6 5 6 7 8 10 10 8 7 7 9 11 13 12 10 9 8 7 8 9 9 11 12 10 8 8 9 10 9
2 2 1 1 2 3 3 3 3 4 4 4 4 5 7 7 6 7 8 9 9 9 8 8 8 8 10 11 12 11 10 9 8 8 9 10 11 11 10 8 8 10 10 10
2 3 3 3 4 5 6 6 6 6 5 4 4 5 7 8 8 10 10 9 8 8 9 9 8 8 8 9 10 11 12 10 9 9 10 11 12 12 11 9 9 10 11 11
2 3 4 4 5 6 6 6 7 6 5 5 5 7 8 9 10 12 11 9 8 8 10 11 10 8 7 8 8 9 10 10 9 9 10 12 13 13 13 12 11 12 13 13
2 3 4 4 5 6 5 5 5 5 5 5 7 9 11 11 11 11 10 9 8 7 8 9 9 7 6 6 7 7 8 8 9 9 10 11 12 13 13 13 13 13 13 14
2 3 4 4 4 4 4 4 4 4 4 5 7 10 13 14 12 10 9 8 7 6 6 6 6 6 5 5 6 7 7 8 9 10 10 10 10 11 11 13 13 13 12 12

GEFSCGP_con_maxscp_318.txt.gz
SCP
1 1 1 1 1 0 0 0 0 0 0 1 1 1 1 1 1 1 2 3 5 5 5 4 3 2 2 2 2 2 2 2 2 2 2 2 1 1 1 1 1 1 1 1
0 0 0 0 0 0 0 0 0 0 0 1 1 1 1 1 1 1 2 4 5 6 5 4 3 2 2 2 2 2 3 3 3 2 2 2 2 2 1 1 1 1 1 1
0 0 0 0 0 0 0 0 0 0 0 1 1 1 1 1 1 1 2 4 6 6 6 4 3 2 2 2 2 3 3 4 4 4 3 3 2 2 2 2 1 1 1 1
0 0 0 0 0 0 0 0 0 0 0 0 0 0 1 1 1 1 2 4 5 6 5 5 4 4 4 3 2 3 3 4 5 5 4 3 3 3 2 2 2 1 1 1
0 0 0 0 0 0 0 0 0 0 0 0 0 0 0 1 1 1 2 3 4 5 5 5 6 6 5 4 3 3 3 4 4 4 4 4 3 2 2 2 2 2 1 1
0 0 0 0 0 0 0 0 0 0 0 0 0 0 0 1 1 2 2 3 4 4 4 6 7 6 5 4 3 3 3 3 3 3 3 3 2 2 2 2 2 2 2 2
0 0 0 0 0 0 0 0 0 0 0 0 0 0 0 1 1 3 3 4 4 4 5 6 7 6 4 3 3 3 4 4 4 3 3 2 2 2 2 2 2 2 3 3
0 0 0 0 0 0 0 0 0 0 0 0 0 1 1 2 3 4 5 5 4 4 5 6 6 5 3 3 3 3 4 5 5 5 3 2 2 2 2 2 3 3 3 3
0 0 0 0 0 0 0 0 0 0 0 0 0 2 4 4 5 6 5 4 4 4 4 5 5 4 3 2 2 3 5 6 6 6 4 3 2 2 3 3 3 3 3 3
0 0 0 0 0 0 0 0 0 0 0 0 1 3 5 5 6 6 4 3 3 3 4 4 4 4 3 3 3 3 5 6 6 6 5 4 3 3 4 3 3 3 3 3
0 0 0 0 0 0 0 0 0 0 0 0 0 2 3 4 4 5 4 3 3 4 4 4 4 4 4 3 3 3 4 4 4 5 5 5 5 5 5 5 4 4 4 4
0 0 0 0 0 0 0 0 0 0 0 0 0 1 2 3 5 5 5 5 5 5 5 5 4 4 4 4 3 3 4 3 3 4 5 6 7 7 7 7 6 5 5 5
0 0 0 0 0 0 0 0 0 0 0 0 0 1 3 6 7 8 7 7 7 6 6 5 4 4 5 4 4 4 4 4 3 4 5 7 8 9 9 10 8 7 6 6
0 0 0 0 0 0 0 0 1 1 1 0 1 3 6 8 8 8 8 7 7 7 7 6 5 5 5 5 5 5 5 4 4 4 6 8 9 10 11 11 10 9 8 6
0 0 0 0 0 0 0 0 1 1 1 1 2 4 6 6 5 5 6 7 7 7 6 6 5 5 5 5 6 6 7 6 5 5 6 8 9 10 12 13 12 10 8 6
0 0 0 0 0 0 0 0 1 2 2 2 3 4 4 3 3 4 5 5 6 5 4 4 4 4 4 4 5 7 9 9 7 6 7 7 7 9 12 14 13 9 7 6
0 0 0 0 0 0 1 1 2 3 3 4 4 3 3 3 3 3 4 5 5 4 4 3 3 3 3 4 4 6 10 11 10 7 6 6 7 9 12 13 10 7 6 6
0 0 0 0 0 1 1 2 3 3 4 4 4 3 3 4 4 4 5 5 6 6 5 5 5 4 4 4 5 6 9 11 11 9 7 6 7 9 11 10 7 6 5 6
0 0 0 0 0 1 1 1 2 3 3 3 4 4 4 4 5 6 6 7 7 8 7 7 6 5 5 4 4 5 7 9 10 9 8 7 7 8 8 6 5 4 4 5
0 0 0 0 1 1 1 1 1 1 2 2 3 4 4 4 5 6 7 8 8 8 8 7 6 6 6 5 4 5 6 7 8 9 8 7 7 6 6 5 4 4 4 4
0 0 1 1 1 1 1 2 1 1 1 1 2 3 4 4 4 6 7 8 7 7 7 7 7 6 6 6 5 5 6 7 7 8 7 7 6 6 6 5 5 4 4 4
1 1 1 1 1 1 2 2 2 1 1 2 2 3 4 4 5 6 6 6 6 7 8 8 8 7 6 6 5 5 6 7 7 7 7 7 7 7 7 6 6 6 6 6
1 1 1 1 2 2 3 3 3 3 3 3 4 5 6 7 7 7 6 6 7 8 9 9 9 7 6 6 6 6 7 7 7 6 6 7 7 8 8 8 8 8 8 8
2 2 2 2 3 3 4 4 5 6 6 6 7 8 9 9 8 7 6 7 8 9 9 8 8 7 6 6 6 7 7 7 6 5 5 6 6 7 8 9 9 10 10 10
3 2 2 2 3 3 4 5 6 7 8 9 9 10 10 9 8 7 7 8 9 9 8 7 7 6 5 5 5 5 5 5 5 5 5 5 5 5 7 8 9 9 9 10
3 2 2 2 3 3 3 4 6 7 8 8 9 10 10 9 8 7 8 8 9 9 8 6 5 5 5 4 4 4 4 3 4 5 5 5 4 4 5 6 7 7 7 8

GEFSCGP_con_maxscp_324.txt.gz
SCP
0 0 0 0 0 0 0 0 0 0 0 0 0 0 0 0 1 1 1 1 1 1 1 1 1 1 1 1 1 1 1 1 1 1 1 1 1 1 1 1 1 1 1 1
0 0 0 0 0 0 0 0 0 0 0 0 0 0 0 0 1 1 1 1 1 1 1 1 1 1 1 1 1 1 1 1 1 1 1 1 1 1 1 1 1 1 1 1
0 0 0 0 0 0 0 0 0 0 0 0 0 0 0 0 1 1 1 1 1 1 1 1 1 1 1 1 2 2 2 2 2 2 2 2 2 2 1 1 1 1 1 1
0 0 0 0 0 0 0 0 0 0 0 0 0 0 0 0 1 1 1 1 1 2 2 2 1 1 1 1 2 2 3 3 2 2 3 2 2 2 1 1 1 1 1 1
0 0 0 0 0 0 0 0 0 0 0 0 0 0 0 0 1 1 1 1 1 1 2 2 2 2 2 2 2 2 3 3 3 3 3 3 2 1 1 1 1 0 1 1
0 0 0 0 0 0 0 0 0 0 0 0 0 0 0 0 0 1 1 1 1 1 2 2 2 2 2 2 2 2 2 2 2 3 3 2 2 1 1 1 1 1 1 1
0 0 0 0 0 0 0 0 0 0 0 0 0 0 0 0 1 1 2 2 1 1 1 2 2 2 2 2 2 2 2 2 2 2 2 2 1 1 1 1 1 1 1 1
0 0 0 0 1 1 0 0 0 0 0 0 0 0 0 1 1 1 2 2 2 2 2 2 2 2 3 2 2 2 2 1 1 2 2 1 1 1 1 2 2 1 1 1
0 0 0 0 1 1 0 0 0 0 0 0 0 0 0 1 1 2 3 3 3 3 2 1 1 2 3 3 2 2 2 2 2 2 2 2 2 1 2 2 2 2 2 1
0 0 0 0 1 1 0 0 0 0 0 0 0 0 0 1 2 3 3 3 3 2 2 1 1 1 2 3 3 2 2 2 2 2 2 2 2 2 2 2 2 2 2 2
0 0 0 0 1 1 1 0 0 0 0 0 0 0 1 1 2 2 3 2 2 2 2 2 1 1 2 2 3 2 2 2 2 2 2 3 3 3 3 3 3 3 3 3
0 0 0 0 0 1 0 0 0 0 0 0 0 0 1 1 2 2 2 2 2 2 2 2 2 1 1 2 2 2 2 2 2 2 2 3 3 3 3 3 4 4 3 3
0 0 0 0 0 0 0 0 0 0 0 0 0 1 1 2 2 2 2 2 2 2 2 2 2 2 1 2 2 2 2 2 2 2 2 2 2 3 3 4 5 5 4 4
0 0 0 0 0 0 0 0 0 0 0 0 0 1 1 2 2 2 2 2 3 3 3 4 3 2 1 2 2 2 2 1 2 2 2 2 2 2 3 5 6 6 5 4
0 0 0 0 0 0 0 0 0 0 0 0 1 1 1 2 2 2 2 2 3 3 3 4 4 3 3 3 2 2 2 2 2 2 2 2 2 2 3 4 5 6 5 4
0 0 0 0 1 0 0 0 0 0 0 1 1 1 1 1 1 2 2 2 2 2 3 3 4 4 4 4 4 4 3 2 2 2 2 3 3 2 3 4 5 6 5 3
0 0 0 1 1 0 0 0 0 1 1 1 1 1 1 1 2 2 2 2 2 2 2 3 3 3 3 4 5 4 3 2 2 3 3 4 4 3 3 4 5 5 4 3
0 0 0 0 0 0 0 1 1 1 1 1 1 2 2 2 2 2 2 3 3 3 3 2 2 2 2 3 4 4 3 3 3 3 3 4 4 3 4 5 5 4 3 2
0 0 0 0 0 1 1 1 1 1 1 1 2 2 3 3 2 2 2 2 3 4 3 2 2 2 2 3 3 4 4 3 3 3 3 3 3 3 4 5 4 3 3 3
0 0 0 0 0 1 1 1 1 1 1 1 2 2 2 2 2 2 2 2 3 3 2 2 3 3 3 3 3 4 3 3 2 2 2 2 2 3 3 3 3 3 3 3
0 0 0 0 0 0 1 1 1 1 1 1 2 2 2 2 2 3 3 3 3 3 2 3 4 4 4 4 4 3 3 3 3 3 3 3 3 3 3 2 2 3 3 4
0 0 0 0 0 0 1 1 1 1 1 1 1 1 1 2 2 3 3 3 3 3 3 3 4 5 5 5 4 3 3 3 3 3 3 4 4 4 4 3 3 3 4 4
0 0 0 0 0 1 1 1 1 1 1 1 1 1 1 2 2 2 3 3 3 3 3 4 4 4 4 4 3 3 3 3 3 3 3 4 5 6 6 6 5 5 5 5
0 0 0 1 1 1 1 1 1 1 1 1 1 1 2 2 2 3 4 5 4 4 4 4 4 4 4 4 3 3 3 4 4 4 3 4 4 5 6 7 7 7 8 8
0 0 1 1 1 1 1 1 1 1 1 1 1 2 3 3 4 5 7 8 7 6 6 5 5 5 4 4 4 3 4 4 4 4 3 3 3 3 4 5 6 7 8 8
0 0 0 1 1 1 1 1 1 1 1 1 1 2 4 4 5 7 10 11 10 8 7 6 6 5 4 4 4 4 3 3 3 3 4 3 3 3 3 3 4 5 6 6

GEFSCGP_con_maxscp_330.txt.gz
SCP
0 0 0 0 0 0 0 0 0 0 0 0 1 1 0 1 1 1 1 1 1 1 1 1 1 1 1 1 1 1 1 1 1 1 1 1 1 1 1 1 1 1 1 1
0 0 0 0 0 0 0 0 0 0 0 0 1 1 0 1 1 1 1 1 1 1 1 1 1 2 2 2 2 2 1 1 1 2 2 2 1 1 1 1 1 1 1 1
0 0 0 0 0 0 0 0 0 0 0 0 0 0 1 1 1 1 1 1 1 1 1 2 2 2 2 2 2 2 2 2 2 2 2 2 1 1 1 1 1 1 1 1
0 0 0 0 0 0 0 0 0 0 0 0 0 0 1 1 1 1 1 1 1 1 1 2 2 2 2 3 3 3 3 3 3 3 3 2 2 1 1 1 1 1 1 1
0 0 0 0 0 0 0 0 0 0 0 0 0 0 1 1 1 1 1 1 1 1 1 2 3 4 3 3 3 3 3 3 4 4 3 3 2 1 1 1 1 1 1 1
0 0 0 0 0 0 0 0 0 0 0 0 0 0 1 1 1 1 1 2 2 2 2 2 3 4 5 5 4 3 3 3 3 3 3 3 2 2 1 1 1 1 1 1
0 0 0 0 0 0 0 0 0 0 0 0 0 0 1 1 1 1 1 2 2 2 1 2 2 3 4 6 6 5 5 4 3 3 3 3 2 2 1 1 1 1 1 1
0 0 0 0 0 0 0 0 0 0 0 0 0 0 1 1 1 1 1 2 2 1 1 1 2 2 3 4 5 6 6 5 4 3 3 3 3 2 2 2 1 1 1 1
0 0 0 0 0 0 0 0 0 0 0 0 0 0 1 1 1 2 2 2 2 1 1 1 1 2 2 2 3 3 4 3 3 3 4 4 4 4 4 3 3 3 2 2
0 0 0 0 0 0 0 0 0 0 0 0 0 0 1 1 1 2 2 2 2 2 1 1 1 1 1 2 2 2 2 2 3 3 4 5 5 6 5 5 5 4 4 3
0 0 0 0 0 0 0 0 0 0 0 0 0 0 1 1 2 2 2 2 2 2 2 1 1 1 1 1 2 3 2 2 3 3 4 5 6 6 5 5 5 5 4 4
0 0 0 0 0 0 0 0 0 0 0 0 0 0 1 1 2 2 2 2 2 2 2 2 2 2 2 1 2 2 2 3 3 3 4 5 5 5 5 5 5 5 4 4
0 0 0 0 0 0 0 0 0 0 0 0 0 0 1 1 1 2 2 2 2 2 3 3 3 3 2 2 2 2 3 3 3 4 4 4 5 5 5 6 6 5 4 4
0 0 0 0 0 0 0 0 0 0 0 0 0 1 1 1 1 1 1 2 2 3 4 5 5 5 4 3 3 3 3 3 4 4 4 4 5 6 6 7 8 6 4 3
0 0 0 0 0 0 0 0 0 0 0 0 0 1 1 1 1 1 1 2 3 5 7 8 8 8 7 6 4 3 3 4 4 4 4 4 4 6 7 7 6 5 3 3
0 0 0 0 0 0 0 0 0 1 0 0 1 1 1 1 1 1 2 2 4 6 7 8 8 8 7 7 5 4 4 4 4 4 3 4 4 6 6 6 5 4 3 3
0 0 0 0 0 0 0 0 0 1 1 1 1 2 2 2 2 2 2 3 3 4 5 5 5 5 5 6 5 5 4 4 3 3 4 5 6 6 6 5 5 4 4 4
0 1 1 0 0 0 0 1 1 1 1 1 1 2 2 2 2 3 3 3 3 3 4 4 3 4 4 4 4 4 4 4 3 4 5 6 7 6 5 4 5 6 5 4
0 1 1 0 0 0 1 1 1 1 1 1 2 2 2 2 2 3 4 4 4 4 5 5 4 4 4 4 4 4 3 3 3 4 4 5 5 4 3 3 5 7 6 4
0 1 1 0 0 0 1 1 1 1 1 1 2 2 2 2 2 3 4 4 4 4 5 6 5 4 4 4 4 3 3 3 3 3 3 3 3 3 3 3 5 6 5 4
0 0 0 0 0 1 1 2 1 1 1 2 2 3 3 3 3 3 4 4 4 4 5 5 5 4 4 4 5 4 4 3 3 3 3 3 3 3 3 3 4 5 5 4
1 1 1 1 1 1 2 2 2 2 1 2 3 4 4 4 4 3 3 4 4 4 5 5 5 5 5 5 5 5 4 4 4 4 4 4 4 4 4 4 4 4 4 5
1 1 1 1 1 1 2 2 2 2 1 2 3 4 4 4 4 4 4 4 5 6 7 8 8 8 8 7 6 6 5 5 5 6 6 6 5 5 5 5 5 4 4 4
1 1 1 2 2 2 2 2 2 2 2 2 2 3 3 3 4 4 5 6 7 9 11 12 14 15 14 12 10 10 9 8 8 7 8 7 6 6 6 6 5 5 4 4
2 2 2 2 2 2 2 2 2 2 2 2 2 2 3 3 3 4 6 7 8 9 11 13 16 18 18 16 15 14 12 12 11 11 9 8 7 7 7 6 5 5 4 4
2 2 2 2 2 2 2 2 2 2 2 2 2 3 3 3 3 4 6 7 8 8 9 10 13 16 17 17 16 15 14 14 15 14 10 8 8 8 7 5 4 4 3 3

GEFSCGP_con_maxscp_336.txt.gz
SCP
1 1 0 0 0 0 0 0 0 0 0 0 1 1 1 1 1 1 1 1 2 3 3 3 3 2 2 2 2 3 3 4 4 4 3 3 3 3 3 3 2 2 2 1
1 0 0 0 0 0 0 0 0 0 0 1 1 1 1 1 1 1 1 1 2 3 3 3 3 3 3 3 3 3 3 4 4 4 4 3 3 3 3 3 2 2 2 1
0 0 0 0 0 0 0 0 0 0 0 1 1 1 1 1 1 1 1 1 2 3 4 4 4 4 4 4 3 3 4 5 5 5 4 4 4 3 3 3 2 2 2 2
0 0 0 0 0 0 0 0 0 0 0 1 1 1 1 1 2 2 1 2 2 3 4 4 4 4 4 4 4 4 5 6 6 5 4 4 4 4 2 2 2 2 2 2
0 0 0 0 0 0 0 0 0 0 0 1 1 1 1 2 2 2 2 2 2 3 4 5 5 5 5 4 5 5 6 7 7 5 4 5 5 4 3 2 2 2 2 2
0 0 0 0 0 0 0 0 0 0 0 0 0 1 1 1 2 2 2 2 2 3 4 5 5 5 5 5 6 6 7 8 7 6 5 5 5 4 4 3 2 2 3 3
0 0 0 0 0 0 0 0 0 0 0 0 0 1 1 1 1 2 2 2 2 3 4 4 5 6 6 6 6 8 9 8 7 6 5 5 4 4 4 4 3 3 3 4
0 0 0 0 0 0 0 0 0 0 0 0 0 1 1 1 1 2 2 2 3 4 4 3 4 6 6 6 6 7 9 10 9 7 6 6 6 5 5 5 4 4 5 6
0 0 0 0 0 0 0 0 0 0 0 0 0 1 1 1 1 2 2 3 3 4 3 3 4 6 6 6 6 7 8 10 9 8 7 7 7 7 6 6 5 6 7 7
0 0 0 0 0 0 0 0 0 0 0 0 0 1 1 2 2 2 3 3 4 4 3 3 4 5 5 5 5 6 7 8 8 7 7 7 7 7 7 7 8 9 9 9
0 0 0 0 0 0 0 0 0 0 0 0 0 1 1 2 2 2 2 3 4 4 4 3 3 4 4 4 4 5 6 6 6 6 6 7 7 7 8 9 10 10 10 9
0 0 0 0 0 0 0 0 0 0 0 0 0 1 2 2 2 2 2 3 4 5 5 4 4 4 4 4 4 5 6 6 5 6 7 8 8 9 9 11 11 10 9 7
0 0 0 0 0 0 0 0 0 0 0 1 1 1 2 3 3 3 4 4 5 5 5 5 5 5 5 5 5 6 7 7 6 7 8 9 10 11 11 11 10 9 7 6
0 0 0 0 0 0 0 0 0 0 0 0 1 2 3 3 3 4 6 6 6 6 6 7 7 7 7 7 7 8 9 10 10 9 9 11 12 12 11 10 9 7 6 6
0 0 0 0 0 0 0 0 0 0 0 0 1 3 4 3 3 4 5 6 6 6 6 7 8 9 10 10 9 9 10 11 12 11 12 13 13 12 11 9 8 7 6 6
0 0 0 0 0 1 0 0 0 0 0 0 1 3 4 4 3 3 4 4 5 5 5 7 8 10 12 11 10 10 11 12 13 15 16 16 14 12 10 9 8 7 5 5
0 1 0 0 0 0 1 1 0 0 0 1 2 3 4 4 3 3 4 5 6 5 5 7 9 10 11 12 11 12 13 16 17 19 19 17 13 10 9 8 7 6 4 3
1 1 1 0 0 0 1 1 1 1 1 1 2 3 3 4 3 4 6 7 7 7 7 9 11 12 12 13 12 13 17 20 21 20 18 14 10 8 7 7 6 5 3 3
1 1 1 1 0 0 1 1 2 2 2 2 2 2 3 3 3 5 7 8 8 8 9 12 14 14 15 14 13 14 18 20 20 17 13 10 7 6 6 6 5 5 4 3
1 1 1 1 1 1 1 2 2 2 3 5 5 4 4 3 4 6 7 8 9 9 10 12 13 12 14 15 14 14 15 16 14 11 9 7 6 6 5 5 5 5 5 4
1 1 1 1 1 1 1 2 2 3 4 8 8 6 4 5 6 8 8 9 10 10 10 10 9 9 13 16 15 12 12 12 9 7 6 6 6 6 5 6 5 5 5 4
1 1 1 1 1 1 2 2 2 3 5 8 9 7 6 7 8 9 8 8 9 10 11 11 10 11 15 16 13 11 11 10 8 7 7 6 6 6 6 6 6 5 4 4
1 1 1 2 2 3 3 3 3 3 4 5 7 7 7 7 8 8 7 7 8 9 10 13 14 15 16 16 14 12 10 9 9 9 9 8 7 6 6 6 5 5 4 4
1 1 2 3 4 4 4 4 3 3 3 3 4 5 5 6 6 6 6 7 8 9 8 10 11 13 15 16 16 15 12 9 9 10 10 10 9 8 7 7 6 6 6 5
2 3 3 4 4 4 4 3 3 3 3 3 3 3 4 4 4 5 6 6 7 8 8 7 7 9 11 12 14 14 13 11 10 10 11 11 11 10 10 9 8 6 6 6
3 4 5 5 4 3 3 3 3 3 3 3 3 3 3 4 4 5 5 6 6 7 7 7 7 7 8 9 10 11 12 12 11 11 11 12 13 13 12 11 8 6 5 5

GEFSCGP_con_maxscp_342.txt.gz
SCP
0 0 0 0 0 0 0 0 0 0 1 1 1 1 2 1 1 1 1 1 2 2 3 4 5 4 2 2 1 1 1 1 2 2 2 1 1 1 1 1 1 1 1 1
0 0 0 0 0 0 0 0 0 0 1 1 1 1 2 1 1 1 1 1 2 3 3 4 5 4 3 2 2 1 1 1 2 2 2 2 1 1 1 1 1 1 1 1
0 0 0 0 0 0 0 0 0 0 1 1 1 1 1 1 1 1 1 1 2 3 3 4 5 4 3 3 2 2 1 1 2 3 3 3 2 2 1 1 1 0 1 1
0 0 0 0 0 0 0 0 0 0 0 0 1 1 1 1 1 1 1 1 2 2 3 4 5 4 3 3 3 2 2 1 2 3 4 4 3 2 1 1 1 1 0 1
0 0 0 0 0 0 0 0 0 0 0 0 0 0 1 1 1 1 1 1 1 2 3 3 4 4 4 3 3 3 2 2 2 3 4 4 4 3 2 2 1 1 0 0
0 0 0 0 0 0 0 0 0 0 0 0 0 0 1 1 1 1 1 1 2 2 3 3 4 4 4 4 3 3 3 3 3 3 4 4 3 3 3 3 2 1 1 1
0 0 0 0 0 0 0 0 0 0 0 0 0 0 0 1 1 2 2 2 3 3 3 4 4 4 5 4 4 4 4 4 4 4 4 4 4 3 3 3 2 2 2 2
0 0 0 0 0 0 0 0 0 0 0 0 0 0 1 1 2 3 3 3 3 4 4 4 4 4 5 4 4 4 5 5 5 6 6 5 4 4 3 3 3 2 2 3
0 0 0 0 0 0 0 0 0 0 0 0 0 0 1 1 2 2 3 3 3 4 4 4 3 4 4 4 5 5 5 4 5 5 6 6 5 4 4 3 3 3 4 4
0 0 0 0 0 0 0 0 0 0 0 0 0 1 1 1 2 2 2 3 3 3 3 4 4 4 4 5 6 5 4 4 4 4 5 5 5 5 4 4 4 4 5 6
0 0 0 0 0 0 0 0 0 0 0 0 0 0 1 1 2 3 4 4 4 3 3 4 4 4 4 5 6 5 4 4 4 4 4 4 5 5 5 5 5 5 6 6
0 0 0 0 0 0 0 0 0 0 0 0 0 1 2 3 4 5 6 6 6 5 5 6 5 4 4 5 5 5 5 5 5 5 5 5 5 6 7 7 6 6 6 6
0 0 0 0 0 0 0 0 0 0 0 0 0 1 3 5 7 7 7 7 7 7 8 7 6 5 5 6 7 6 6 7 8 7 7 7 7 8 9 9 9 7 7 6
0 0 0 0 0 0 0 0 0 0 0 0 0 1 3 6 7 7 6 6 7 7 8 7 7 6 7 9 9 8 8 10 11 12 11 10 10 10 11 12 11 8 7 6
0 0 0 0 0 0 0 0 0 0 0 0 1 2 3 5 6 6 6 5 6 6 6 6 7 7 7 8 8 8 8 9 11 13 13 12 11 10 12 13 12 9 6 4
0 0 0 0 0 0 0 0 0 0 0 1 1 2 3 4 5 5 5 4 5 5 5 5 6 6 6 6 8 8 7 7 9 10 10 9 9 10 13 15 13 9 5 3
0 0 0 0 0 0 0 0 1 1 1 1 2 2 3 4 4 4 3 3 4 5 5 5 5 6 6 6 7 7 6 6 7 8 8 7 8 11 15 16 13 8 4 2
0 0 0 0 0 0 0 1 1 1 1 2 2 3 3 4 3 3 2 3 4 5 6 6 6 6 6 5 5 5 5 6 7 8 8 8 10 14 18 16 12 6 3 2
0 0 0 0 0 0 1 1 1 1 1 2 3 4 4 4 4 3 3 4 5 6 7 8 7 7 7 6 6 6 6 7 8 9 9 9 13 18 20 15 9 4 2 2
0 0 0 0 0 0 1 1 1 1 1 2 2 3 4 5 6 6 6 7 8 9 11 11 11 10 9 8 8 8 8 8 8 8 9 10 14 17 16 11 6 4 3 2
1 1 0 0 0 1 1 1 1 1 1 1 2 3 5 7 9 9 10 10 11 14 15 15 13 12 11 9 9 8 8 7 6 8 9 10 11 11 10 7 5 4 4 3
1 1 1 1 1 1 1 1 1 1 1 2 2 3 5 8 9 10 9 9 11 17 19 17 15 13 11 9 8 8 7 6 6 7 8 8 8 8 7 6 6 5 5 4
1 1 1 1 1 1 1 1 1 2 2 3 3 4 5 6 7 6 6 5 8 14 19 18 15 13 11 9 7 6 6 7 7 7 6 6 7 8 8 7 7 6 5 5
1 1 2 2 3 2 2 3 3 3 4 4 4 4 5 5 5 4 3 3 4 8 13 14 13 12 11 8 7 7 7 8 8 7 6 5 6 7 7 8 7 6 6 5
1 1 2 2 3 3 4 5 5 5 4 4 4 4 4 4 3 3 2 2 3 5 8 9 9 9 8 8 8 8 8 8 8 8 7 5 5 6 7 7 6 5 5 5
1 1 2 2 2 2 3 5 6 5 4 4 4 3 3 3 3 2 2 2 3 5 6 7 6 6 7 8 8 8 8 8 8 8 7 6 5 6 6 6 5 4 4 4

GEFSCGP_con_maxscp_348.txt.gz
SCP
0 0 0 0 0 0 0 0 0 0 1 1 0 0 0 1 1 1 1 1 1 1 1 1 1 1 1 2 3 3 2 2 1 2 2 3 2 2 2 2 2 1 1 1
0 0 0 0 0 0 0 0 0 1 1 1 0 0 0 1 1 0 0 1 1 1 1 1 1 1 2 2 3 3 2 1 1 1 2 2 2 2 2 2 2 2 1 1
0 0 0 0 0 0 0 0 0 1 1 1 0 0 0 1 1 0 0 1 1 1 1 1 2 2 2 2 3 3 2 1 1 1 1 2 2 2 2 2 2 2 1 1
0 0 0 0 0 0 0 0 0 0 0 0 0 0 0 0 1 1 1 1 1 1 1 1 2 2 2 2 3 3 2 1 1 1 1 1 1 1 2 2 1 1 1 1
0 0 0 0 0 0 0 0 0 0 0 0 0 0 0 0 0 1 1 1 0 1 1 1 2 2 2 2 2 2 2 1 1 1 1 1 1 1 1 1 1 1 1 1
0 0 0 0 0 0 0 0 0 0 0 0 0 0 0 0 0 1 1 1 1 1 1 1 2 2 2 2 2 2 2 2 1 1 2 2 2 2 2 2 2 2 1 1
0 0 0 0 0 0 0 0 0 0 0 0 0 0 0 0 0 1 1 1 1 1 1 1 1 2 2 2 2 3 3 2 2 2 2 2 2 2 2 2 3 2 2 2
0 0 0 0 0 0 0 0 0 0 0 0 0 0 0 0 0 1 1 1 1 2 2 2 2 2 2 3 3 4 3 3 2 2 2 3 3 3 3 3 3 3 3 3
0 0 0 0 0 0 0 0 0 0 0 0 0 0 0 0 0 1 1 1 1 2 2 2 2 2 2 3 4 4 4 4 3 2 2 2 3 3 3 3 3 3 3 4
0 0 0 0 0 0 0 0 0 0 0 0 0 0 0 0 0 1 1 1 1 1 2 2 2 2 2 3 4 4 4 4 4 3 2 2 2 3 3 2 3 3 4 4
0 0 0 0 0 0 0 0 0 0 0 0 0 0 0 0 0 1 1 1 1 1 1 1 2 2 2 3 3 4 4 4 4 3 3 2 2 3 3 3 3 3 3 3
0 0 0 0 0 0 0 0 0 0 0 0 0 0 0 1 1 1 1 1 1 1 1 1 2 2 2 2 2 3 3 4 4 4 4 4 4 4 4 3 3 3 3 3
0 0 0 0 0 0 0 0 0 0 0 0 0 0 0 1 1 1 1 1 1 1 1 2 3 3 2 2 2 2 3 4 5 5 5 5 5 5 4 4 4 4 4 4
0 0 0 0 0 0 0 0 0 0 0 0 0 0 1 1 2 2 2 2 2 2 1 2 3 3 2 2 2 2 3 5 6 7 7 6 6 5 4 4 4 4 5 5
0 0 0 0 0 0 0 0 0 0 0 0 0 0 1 2 2 2 2 2 2 2 2 2 2 2 2 2 2 3 4 4 6 7 7 7 5 4 3 4 4 5 5 5
0 0 0 0 0 0 1 1 1 1 1 0 0 1 1 2 3 3 3 2 2 2 3 2 2 2 2 2 2 3 3 3 4 5 6 5 4 3 3 3 3 4 5 5
0 0 0 0 0 1 1 1 1 2 2 1 1 1 2 3 2 2 2 2 2 2 2 2 3 3 3 3 2 3 3 3 3 4 4 4 3 3 3 3 3 4 5 5
0 0 0 0 0 0 1 1 1 2 2 2 2 2 2 3 2 1 2 2 2 2 2 3 4 4 3 3 3 3 4 4 3 3 3 3 3 2 3 4 4 4 5 6
0 0 0 0 0 0 0 1 1 1 2 2 2 2 2 2 1 1 1 2 2 2 3 3 4 3 3 3 3 4 4 4 3 3 3 3 2 2 2 4 6 6 6 6
0 0 0 0 0 0 0 0 0 1 1 2 2 1 1 1 1 1 2 2 2 3 3 3 3 2 2 3 4 4 4 4 3 3 3 3 2 2 2 5 7 8 8 7
0 0 0 0 0 1 1 1 1 1 1 1 1 1 1 1 1 2 3 4 4 5 5 4 3 2 2 3 4 5 5 4 4 4 4 3 2 2 2 5 9 10 8 7
0 0 0 0 0 1 1 1 1 1 1 2 2 2 1 1 2 3 4 5 5 6 6 5 4 3 2 3 4 5 5 5 5 5 4 3 3 2 3 6 9 10 8 6
0 0 0 0 0 0 1 1 1 1 2 2 2 2 2 2 3 3 4 5 5 6 6 5 4 3 2 3 4 5 5 6 6 6 5 4 4 3 4 5 8 9 8 6
0 0 0 0 0 0 1 1 1 1 2 2 2 2 3 3 3 3 4 4 4 3 4 4 3 3 4 4 5 5 6 6 5 5 5 5 4 4 4 4 6 7 6 5
0 0 0 0 0 0 1 1 1 1 1 1 2 2 2 2 3 3 3 3 2 2 2 2 2 3 4 5 5 5 5 5 4 3 3 4 4 4 4 4 4 4 4 4
0 0 0 0 0 0 0 1 1 1 1 1 2 2 2 2 2 2 3 2 1 1 1 1 1 2 3 4 4 4 4 5 4 2 2 3 3 3 3 3 3 2 3 3

GEFSCGP_con_maxscp_354.txt.gz
SCP
0 0 0 0 0 0 0 0 0 1 1 0 0 0 1 1 2 2 3 3 2 1 1 1 1 2 2 3 3 2 2 3 3 4 4 4 4 3 2 2 2 2 2 2
0 0 0 0 0 0 0 0 0 1 1 0 0 0 1 1 1 1 2 2 2 2 2 2 1 2 3 3 2 2 3 3 3 4 4 4 4 3 2 2 2 2 2 2
0 0 0 0 0 0 0 0 0 0 0 0 0 0 1 1 1 1 1 1 2 2 2 2 2 2 3 2 2 2 3 3 4 4 4 4 4 4 3 2 2 2 1 2
0 0 0 0 0 0 0 0 0 0 0 0 0 0 1 1 1 1 1 1 2 2 2 3 3 3 3 2 2 2 2 3 4 4 4 4 4 4 4 3 2 1 1 2
0 0 0 0 0 0 0 0 0 0 0 0 0 0 0 0 1 1 1 1 1 2 2 2 3 3 3 3 2 2 3 3 4 4 5 5 5 5 4 4 2 1 2 2
0 0 0 0 0 0 0 0 0 0 0 0 0 0 0 1 1 1 1 1 2 2 2 2 3 4 4 4 4 4 5 5 5 4 5 6 6 5 5 5 3 2 2 2
0 0 0 0 0 0 0 0 0 0 0 0 0 0 1 1 1 1 1 2 2 2 2 2 3 4 4 5 6 7 7 6 5 4 5 5 6 6 6 5 5 4 3 2
0 0 0 0 0 0 0 0 0 0 0 0 0 0 1 1 2 2 2 2 3 3 2 2 3 3 3 4 4 5 5 5 5 4 4 5 6 6 5 5 5 4 4 3
0 0 0 0 0 0 0 0 0 0 0 0 0 1 1 2 2 2 3 3 3 3 3 2 2 2 2 2 2 2 3 4 4 4 4 5 5 6 6 6 5 5 5 5
0 0 0 0 0 0 0 0 0 0 0 0 0 0 1 2 2 3 3 3 3 3 3 2 2 2 2 2 2 2 2 3 4 4 4 4 5 6 7 7 6 6 6 7
0 0 0 0 0 0 0 0 0 0 0 0 0 0 1 2 2 2 3 2 2 2 3 2 2 2 2 3 3 3 3 3 4 4 5 5 6 7 8 8 7 7 8 7
0 0 0 0 0 0 0 0 0 0 0 0 0 1 1 2 2 2 2 2 2 2 3 3 3 3 3 4 4 4 4 4 5 5 5 5 5 6 6 6 7 7 8 7
0 0 0 0 0 0 0 0 0 0 0 0 0 1 1 1 1 1 2 2 3 3 3 4 4 5 4 4 4 4 4 5 5 5 5 5 5 5 5 5 6 7 7 8
0 0 0 0 0 0 0 0 0 0 0 0 0 1 1 1 1 1 2 3 4 5 5 5 6 6 5 4 4 4 3 4 4 5 5 4 4 5 5 6 6 7 7 7
0 0 0 0 0 0 0 0 0 0 0 0 0 1 1 1 1 2 3 4 5 6 6 6 6 5 4 4 3 3 3 3 4 4 4 4 4 5 6 6 7 7 8 7
1 0 0 0 0 0 0 0 0 0 0 0 0 1 1 1 2 2 4 5 5 5 5 4 4 4 4 3 3 3 3 3 4 4 4 5 5 6 6 7 7 8 8 8
1 1 0 0 0 0 0 0 0 0 0 1 1 1 1 2 2 3 4 4 4 3 3 3 3 3 3 3 4 4 4 4 4 4 5 5 5 6 6 6 7 8 8 8
1 1 1 0 0 0 0 1 0 0 1 1 1 2 2 2 2 3 3 3 3 2 3 3 3 3 3 4 4 4 4 4 4 4 5 5 5 6 6 6 6 7 8 8
1 1 1 1 0 1 1 1 1 1 1 1 2 2 2 2 2 2 2 2 2 2 3 4 4 5 5 4 4 4 4 4 4 4 5 5 5 5 5 5 5 6 7 7
1 1 1 1 1 1 1 1 1 1 1 1 2 2 3 2 2 2 2 2 2 3 3 4 5 6 6 5 5 4 4 4 4 4 5 5 5 5 4 4 4 5 6 7
1 1 1 1 1 1 1 1 1 1 2 2 2 3 3 3 3 3 3 4 4 4 4 5 6 7 6 6 6 6 6 6 5 5 5 5 5 4 4 4 5 5 6 6
1 1 1 1 1 1 2 2 2 2 2 3 3 4 4 3 3 4 4 6 8 8 7 6 6 6 6 6 6 7 8 9 8 7 7 6 5 5 4 5 5 5 5 5
1 1 1 2 2 2 3 3 3 3 3 3 3 4 4 3 3 3 5 8 11 13 11 8 7 6 6 6 6 7 9 10 11 11 10 10 8 7 6 6 6 5 5 4
1 1 2 2 2 3 4 4 3 3 4 4 4 4 3 3 3 3 5 8 11 12 12 10 7 6 7 7 7 8 8 9 12 13 14 13 12 11 10 9 7 7 6 6
2 2 2 2 2 3 3 4 3 4 4 4 4 4 3 3 3 3 5 8 8 8 9 9 7 6 7 8 10 10 9 9 11 13 14 13 13 12 11 11 9 7 6 6
2 2 2 2 2 2 3 3 4 4 4 4 4 3 3 3 3 4 6 7 6 6 6 8 7 7 6 8 11 13 11 9 9 11 11 12 11 11 12 11 9 6 6 5